Location: Linton
(52.0943°N, 0.2848°E)
Time: 07:10:00
(UTC+00:00)

N. Korean satellite - Visible Passes

Search period start: 16 January 2018 00:00
Search period end: 26 January 2018 00:00
Orbit: 459 x 515 km, 97.2° (Epoch: 15 January)

Date Brightness Start Highest point End Pass type
(mag) Time Alt. Az. Time Alt. Az. Time Alt. Az.
16 Jan 10.3 05:32:57 10° E 05:33:12 10° E 05:33:26 10° E visible
16 Jan 6.4 07:03:45 10° N 07:07:14 76° WNW 07:10:40 10° SSW visible
16 Jan 6.6 17:44:58 10° SSE 17:48:36 85° WSW 17:52:12 10° NNW visible
17 Jan 7.2 06:40:07 10° NNE 06:43:33 56° E 06:46:56 10° S visible
17 Jan 6.7 17:21:27 10° SSE 17:24:58 52° ENE 17:28:27 10° N visible
17 Jan 9.8 18:56:34 10° SW 18:58:46 15° W 19:00:58 10° NW visible
18 Jan 8.6 06:16:41 10° NNE 06:19:47 30° E 06:22:52 10° SSE visible
18 Jan 7.4 16:58:15 10° SE 17:01:24 29° ENE 17:04:32 10° N visible
18 Jan 8.9 18:31:51 10° SSW 18:34:55 26° W 18:37:59 10° NW visible
19 Jan 9.6 05:53:33 10° NE 05:55:57 17° E 05:58:19 10° SE visible
19 Jan 7.7 18:07:40 10° S 18:11:09 46° W 18:14:36 10° NNW visible
20 Jan 6.4 07:02:36 10° N 07:06:03 78° WNW 07:09:30 10° SSW visible
20 Jan 6.5 17:43:51 10° SSE 17:47:27 87° W 17:51:00 10° NNW visible
21 Jan 7.3 06:38:57 10° NNE 06:42:22 55° E 06:45:46 10° S visible
21 Jan 6.7 17:20:20 10° SSE 17:23:48 50° ENE 17:27:15 10° N visible
21 Jan 9.8 18:55:25 10° SW 18:57:36 15° W 18:59:47 10° NW visible
22 Jan 8.7 06:15:31 10° NNE 06:18:36 29° E 06:21:40 10° SSE visible
22 Jan 8.9 18:30:42 10° SSW 18:33:44 26° W 18:36:46 10° NW visible
23 Jan 9.7 05:52:24 10° NE 05:54:45 17° E 05:57:05 10° SE visible
23 Jan 7.6 18:06:31 10° S 18:09:58 47° W 18:13:23 10° NNW visible
24 Jan 6.4 07:01:22 10° N 07:04:51 80° WNW 07:08:19 10° SSW visible
24 Jan 6.5 17:42:42 10° SSE 17:46:14 89° WSW 17:49:46 10° NNW visible
25 Jan 7.4 06:37:43 10° NNE 06:41:08 53° E 06:44:33 10° S visible
25 Jan 6.7 17:19:10 10° SSE 17:22:35 49° ENE 17:26:00 10° N visible
25 Jan 9.8 18:54:12 10° SW 18:56:23 15° W 18:58:34 10° NW visible
